Regional Weather Roundup
Issued by NWS

Home | Current Version | Previous Version | Text Only | Print | Product List | Glossary Off
Versions: 1 2 3 4 5 6 7 8 9 10 11 12 13 14 15 16 17 18 19 20 21 22 23 24 25 26 27 28 29 30 31 32 33 34 35 36 37 38 39 40 41 42 43 44 45 46 47 48 49 50

000
ASUS43 KLMK 311310
RWRKY
KENTUCKY REGIONAL WEATHER ROUNDUP
NATIONAL WEATHER SERVICE LOUISVILLE KY
900 AM EDT TUE MAY 31 2016

NOTE "FAIR" INDICATES FEW OR NO CLOUDS BELOW 12,000 FEET
WITH NO SIGNIFICANT WEATHER AND/OR OBSTRUCTIONS TO VISIBILITY.

KYZ001>023-026-027-061>063-070>075-311400-
WESTERN AND SOUTH CENTRAL KENTUCKY

CITY           SKY/WX    TMP DP  RH WIND       PRES   REMARKS
PADUCAH        CLOUDY    71  66  84 CALM      29.97R
HENDERSON      MOSUNNY   72  64  78 CALM      29.97F
OWENSBORO      CLOUDY    75  64  68 E5        29.99S
HOPKINSVILLE   PTSUNNY   73  64  73 E5        29.98S
BOWLING GREEN  MOSUNNY   72  64  76 E3        30.00S
GLASGOW        CLOUDY    73  64  75 E3        30.01S
$$

KYZ024-025-028>034-038-045-046-053-311400-
NORTH CENTRAL KENTUCKY

CITY           SKY/WX    TMP DP  RH WIND       PRES   REMARKS
LOUISVILLE/SDF PTSUNNY   76  62  62 CALM      30.01R
LOUISVILLE/LOU MOSUNNY   74  62  66 CALM      30.02R
FORT KNOX      PTSUNNY   73  62  68 E2        30.00S
$$

KYZ035>037-039>044-047>052-055>060-089>105-311400-
NORTHEAST KENTUCKY

CITY           SKY/WX    TMP DP  RH WIND       PRES   REMARKS
LEXINGTON      CLOUDY    73  64  73 N3        30.03S
COVINGTON      PTSUNNY   76  61  59 CALM      30.02R
FRANKFORT      MOSUNNY   71  63  75 CALM      30.02R
$$

KYZ054-064>069-076>088-106>120-311400-
SOUTHEAST KENTUCKY

CITY           SKY/WX    TMP DP  RH WIND       PRES   REMARKS
JACKSON        CLOUDY    69  63  81 CALM      30.05R
LONDON         SUNNY     69  62  78 CALM      30.03R
SOMERSET       CLOUDY    68  63  83 CALM      30.04S
MIDDLESBORO    CLOUDY    62  62 100 CALM      30.05R FOG
MONTICELLO     CLOUDY    70  65  84 N10       30.04R
$$




USA.gov is the U.S. government's official web portal to all federal, state and local government web resources and services.